[[{"header":{"parameterUnit":"m.s-1","parameterCategory":1,"la1":30.2991,"la2":30.254,"lo1":-89.0895,"lo2":-89.0444,"dy":0.0017,"dx":0.0017,"nx":28,"ny":28,"refTime":"2024-06-08T09:00:00:Z","depth":0,"parameterNumber":2,"parameterNumberName":"U-component_of_WINDS"},"data":[0,0,0,0,0,0,0,0,0,0,0,0,0,0,0,0,0,0,0,0,0,0,0,0,0,0,0,0,0,0,0,0,0,0,0,0,0,0,0,0,0,0,0,0,0,0,0,0,0,0,0,0,0,0,0,0,0,0,2.237,2.2371,0,2.2419,2.242,2.242,2.2452,2.2452,2.2452,2.2452,2.2501,2.2502,2.2503,0,0,0,0,0,0,0,0,0,0,0,0,0,2.2303,2.2304,2.237,2.2371,2.2372,2.2419,2.242,2.242,2.2452,2.2452,2.2452,2.2452,2.2501,2.2502,2.2503,0,0,0,0,0,0,0,0,0,0,0,0,0,2.234,2.2304,2.237,2.2393,2.2395,2.2419,2.242,2.2421,2.2452,2.2452,2.2452,2.2453,2.25,2.2502,2.2504,2.2508,0,0,2.2509,2.2509,0,0,0,0,0,0,0,0,2.2338,2.2342,2.2389,2.2391,2.2394,2.243,2.2414,2.245,2.2452,2.243,2.2452,2.2453,2.2477,2.2481,2.2489,2.251,2.2512,2.2509,2.251,2.2511,2.2511,0,0,0,0,0,0,0,2.2335,2.234,2.239,2.239,2.2393,2.24,2.2406,2.2421,2.2451,2.2432,2.2435,2.244,2.2479,2.2487,2.2491,2.2513,2.2509,2.251,2.2511,2.2512,2.2541,2.2541,0,0,0,0,0,0,2.2329,2.2338,2.2388,2.2391,2.2366,2.2401,2.2408,2.2418,2.2451,2.2457,2.244,2.2441,2.2484,2.2489,2.2492,2.25,2.2511,2.2512,2.2513,2.2541,2.2541,2.2541,0,0,0,0,0,0,2.2328,2.2333,2.2386,2.2365,2.2373,2.2402,2.2414,2.2419,2.2428,2.2457,2.2462,2.2443,2.2485,2.249,2.2504,2.2502,2.2513,2.2514,2.2541,2.2541,2.2541,2.2516,0,0,0,0,0,0,2.2326,2.2333,2.2335,2.2365,2.2374,2.2397,2.2414,2.242,2.2431,2.2433,2.2462,2.2467,2.2485,2.2501,2.2506,2.2505,2.2516,2.2542,2.2541,2.2541,2.2517,2.2514,2.2512,0,0,0,0,0,2.2323,2.2325,2.2335,2.2341,2.2377,2.2397,2.2402,2.2424,2.243,2.2433,2.2452,2.2466,2.2502,2.2503,2.2508,2.2507,2.2542,2.2541,2.2541,2.2518,2.2515,2.2512,0,0,0,0,0,0,2.2293,2.233,2.2341,2.2353,2.2372,2.2402,2.2406,2.242,2.2437,2.2438,2.2464,2.2471,2.2482,2.2496,2.2496,2.2514,2.2524,2.2524,2.2504,2.2502,2.25,2.2496,2.2517,0,0,0,0,0,2.2288,2.2302,2.2333,2.2341,2.235,2.2376,2.2386,2.2401,2.2421,2.2429,2.2449,2.2468,2.2484,2.2493,2.2509,2.2519,2.2526,2.2521,2.2519,2.2517,2.2517,2.2524,2.2522,2.2539,2.2539,2.2539,0,0,2.2278,2.23,2.2307,2.2335,2.2352,2.2365,2.2383,2.2396,2.2406,2.2431,2.2446,2.2461,2.2484,2.2496,2.2502,2.2508,2.2514,2.2516,2.2515,2.2516,2.2523,2.2521,2.252,2.2539,2.2539,2.2539,0,0,2.2266,2.2284,2.2293,2.2309,2.2334,2.2351,2.2353,2.2382,2.2393,2.2409,2.2428,2.244,2.2466,2.2482,2.2493,2.2488,2.2502,2.2492,2.2481,2.2487,2.2486,2.2485,2.2483,2.2482,2.2492,2.2492,2.2492,0,2.225,2.2272,2.2295,2.2308,2.232,2.2344,2.2353,2.2367,2.2395,2.2403,2.2409,2.2443,2.246,2.2476,2.2475,2.2483,2.2486,2.2489,2.2484,2.2483,2.2483,2.2481,2.2481,2.2491,2.2491,2.2491,2.2491,0,2.2251,2.2265,2.2269,2.2297,2.2309,2.232,2.2345,2.2355,2.2369,2.2385,2.2401,2.2422,2.2443,2.2448,2.2462,2.2466,2.2469,2.2479,2.249,2.2479,2.2479,2.2478,2.2489,2.2489,2.249,2.249,0,0,2.2222,2.2263,2.2264,2.2277,2.2306,2.2318,2.2329,2.235,2.2358,2.2377,2.2387,2.2409,2.2419,2.2432,2.2447,2.2452,2.2447,2.2462,2.2463,2.2459,2.2454,2.2447,2.2446,2.2456,2.2456,2.2456,2.2452,0,2.2215,2.2237,2.2259,2.2274,2.2288,2.231,2.2321,2.2339,2.2355,2.2369,2.2387,2.2402,2.2413,2.2422,2.2428,2.2446,2.2447,2.2447,2.2467,2.2467,2.246,2.2445,2.2437,2.2432,2.2452,2.2452,2.2452,0,2.2209,2.2228,2.2244,2.2273,2.2279,2.2288,2.2309,2.2322,2.2344,2.2355,2.237,2.2386,2.2399,2.2408,2.2427,2.2427,2.2436,2.2446,2.2447,2.245,2.2459,2.2448,2.2431,2.2431,2.2452,2.2452,2.2452,0,2.2187,2.2216,2.223,2.224,2.2273,2.2279,2.2293,2.2315,2.2327,2.2345,2.2353,2.2372,2.2382,2.2397,2.2418,2.2423,2.2435,2.2445,2.2445,2.2444,2.2446,2.2446,2.2431,2.2452,2.2452,2.2452,2.2452,0,2.2177,2.2187,2.2221,2.2229,2.224,2.2264,2.2274,2.229,2.231,2.2322,2.2342,2.2353,2.238,2.2394,2.2411,2.2424,2.2428,2.2438,2.2442,2.2436,2.2435,2.2443,2.2444,2.2451,2.2452,2.2452,2.2452,0,2.2155,2.2178,2.2194,2.2225,2.2232,2.2239,2.2265,2.2274,2.2291,2.2306,2.231,2.2337,2.2355,2.2377,2.2402,2.2413,2.2424,2.2431,2.2417,2.242,2.2418,2.2418,2.2408,2.2408,2.2427,2.2427,2.2427,0,2.2147,2.2155,2.2186,2.2196,2.2209,2.2224,2.2236,2.2261,2.2272,2.2298,2.2303,2.2322,2.2339,2.2365,2.2387,2.2406,2.2413,2.2408,2.2416,2.241,2.2414,2.2413,2.2414,2.2407,2.2406,2.2406,2.2406,0,2.2132,2.2143,2.2159,2.218,2.2193,2.2211,2.2229,2.2235,2.2263,2.2275,2.2293,2.2306,2.2331,2.2349,2.2371,2.2385,2.24,2.2403,2.2404,2.2398,2.239,2.2395,2.2412,2.2403,2.2403,2.2404,2.2404,2.2404,2.2117,2.2125,2.2148,2.2166,2.2182,2.2199,2.2209,2.2227,2.2243,2.2266,2.2279,2.2296,2.2318,2.2349,2.2362,2.2377,2.2382,2.2384,2.2384,2.2384,2.2382,2.2387,2.2381,2.2381,2.2381,2.2381,2.2381,0,2.2102,2.2119,2.2135,2.216,2.2174,2.2187,2.2207,2.2218,2.2233,2.2253,2.2269,2.2289,2.2308,2.2331,2.2351,2.2357,2.2365,2.2362,2.2362,2.2365,2.2376,2.2373,2.2356,2.2356,2.2356,2.2356,2.2356,2.2356,2.2097,2.2111,2.2125,2.2148,2.2164,2.2182,2.2192,2.2208,2.2223,2.2246,2.2261,2.2276,2.2297,2.2319,2.2336,2.2342,2.2349,2.2344,2.2352,2.2362,2.2364,2.2366,2.2364,2.2345,2.2345,2.234,2.234,2.234]},{"header":{"parameterUnit":"m.s-1","parameterCategory":1,"la1":30.2991,"la2":30.254,"lo1":-89.0895,"lo2":-89.0444,"dy":0.0017,"dx":0.0017,"nx":28,"ny":28,"refTime":"2024-06-08T09:00:00:Z","depth":0,"parameterNumber":3,"parameterNumberName":"V-component_of_WINDS"},"data":[0,0,0,0,0,0,0,0,0,0,0,0,0,0,0,0,0,0,0,0,0,0,0,0,0,0,0,0,0,0,0,0,0,0,0,0,0,0,0,0,0,0,0,0,0,0,0,0,0,0,0,0,0,0,0,0,0,0,-0.0681,-0.0681,0,-0.0752,-0.0753,-0.0753,-0.0802,-0.0803,-0.0803,-0.0803,-0.0874,-0.0875,-0.0877,0,0,0,0,0,0,0,0,0,0,0,0,0,-0.0585,-0.0587,-0.068,-0.0681,-0.0682,-0.0752,-0.0753,-0.0754,-0.0802,-0.0803,-0.0803,-0.0804,-0.0873,-0.0875,-0.0877,0,0,0,0,0,0,0,0,0,0,0,0,0,-0.0638,-0.0587,-0.068,-0.0715,-0.0719,-0.0752,-0.0753,-0.0754,-0.0802,-0.0803,-0.0803,-0.0804,-0.0873,-0.0875,-0.0877,-0.088,0,0,-0.0884,-0.0885,0,0,0,0,0,0,0,0,-0.0635,-0.0642,-0.0709,-0.0713,-0.0717,-0.0769,-0.0745,-0.0796,-0.0802,-0.077,-0.0803,-0.0804,-0.0838,-0.0843,-0.0856,-0.0884,-0.0887,-0.0884,-0.0886,-0.0887,-0.0888,0,0,0,0,0,0,0,-0.0631,-0.0639,-0.0709,-0.071,-0.0715,-0.0727,-0.0735,-0.0755,-0.08,-0.0773,-0.0777,-0.0785,-0.0841,-0.0853,-0.0858,-0.0888,-0.0884,-0.0886,-0.0888,-0.0889,-0.0923,-0.0922,0,0,0,0,0,0,-0.0623,-0.0636,-0.0706,-0.0711,-0.0677,-0.0728,-0.0737,-0.0752,-0.08,-0.0808,-0.0784,-0.0787,-0.0849,-0.0855,-0.086,-0.0867,-0.0887,-0.0889,-0.089,-0.0923,-0.0923,-0.0922,0,0,0,0,0,0,-0.062,-0.0628,-0.0704,-0.0674,-0.0685,-0.0729,-0.0745,-0.0753,-0.0765,-0.0809,-0.0817,-0.0789,-0.085,-0.0857,-0.0875,-0.0871,-0.089,-0.0892,-0.0924,-0.0923,-0.0922,-0.0882,0,0,0,0,0,0,-0.0617,-0.0627,-0.0629,-0.0674,-0.0686,-0.0718,-0.0745,-0.0754,-0.077,-0.0774,-0.0815,-0.0823,-0.0851,-0.0872,-0.0878,-0.0874,-0.0894,-0.0924,-0.0924,-0.0923,-0.0883,-0.0879,-0.0876,0,0,0,0,0,-0.0614,-0.0614,-0.0629,-0.0637,-0.0689,-0.0717,-0.0724,-0.0757,-0.0769,-0.0771,-0.0799,-0.0821,-0.087,-0.0873,-0.088,-0.0877,-0.0925,-0.0924,-0.0923,-0.0885,-0.088,-0.0876,0,0,0,0,0,0,-0.0566,-0.0621,-0.0638,-0.0653,-0.068,-0.0726,-0.0729,-0.0751,-0.0775,-0.0778,-0.0817,-0.0826,-0.084,-0.0861,-0.0863,-0.0883,-0.09,-0.0901,-0.0869,-0.0865,-0.0861,-0.0856,-0.0896,0,0,0,0,0,-0.0558,-0.0577,-0.0623,-0.0631,-0.0645,-0.0684,-0.0698,-0.0721,-0.0751,-0.0762,-0.0792,-0.0819,-0.0841,-0.0854,-0.0877,-0.0887,-0.0897,-0.0889,-0.0885,-0.0882,-0.0881,-0.0889,-0.0885,-0.0919,-0.0919,-0.0919,0,0,-0.054,-0.0572,-0.0581,-0.0623,-0.0647,-0.0665,-0.0694,-0.0711,-0.0725,-0.0765,-0.0784,-0.0807,-0.084,-0.0855,-0.0862,-0.0872,-0.0874,-0.088,-0.0877,-0.0879,-0.0887,-0.0884,-0.0881,-0.0918,-0.0918,-0.0918,0,0,-0.0517,-0.0543,-0.0553,-0.0577,-0.0614,-0.0641,-0.0643,-0.0686,-0.0703,-0.0723,-0.0753,-0.077,-0.0806,-0.0829,-0.0845,-0.0832,-0.0853,-0.0838,-0.0819,-0.0825,-0.0823,-0.0821,-0.0816,-0.0814,-0.0838,-0.0838,-0.0838,0,-0.049,-0.0519,-0.0556,-0.0572,-0.0589,-0.0628,-0.0638,-0.066,-0.0701,-0.0712,-0.0722,-0.077,-0.0795,-0.0815,-0.0812,-0.0824,-0.0828,-0.0833,-0.082,-0.0819,-0.0817,-0.0813,-0.0811,-0.0836,-0.0836,-0.0836,-0.0836,0,-0.0484,-0.0504,-0.0508,-0.0548,-0.0566,-0.0579,-0.0618,-0.0631,-0.0653,-0.0679,-0.0699,-0.0731,-0.0761,-0.0768,-0.0789,-0.0791,-0.0796,-0.0813,-0.0831,-0.0811,-0.0808,-0.0807,-0.0833,-0.0833,-0.0834,-0.0835,0,0,-0.0431,-0.0493,-0.0494,-0.0513,-0.0557,-0.0572,-0.0588,-0.0618,-0.0629,-0.0657,-0.067,-0.0701,-0.0717,-0.0735,-0.076,-0.0766,-0.0753,-0.0782,-0.0783,-0.0775,-0.0758,-0.0745,-0.0742,-0.0768,-0.0768,-0.0768,-0.0755,0,-0.0414,-0.0444,-0.0479,-0.0497,-0.0515,-0.0553,-0.0566,-0.0594,-0.0618,-0.0638,-0.0665,-0.0686,-0.0706,-0.0717,-0.0725,-0.0753,-0.075,-0.0755,-0.078,-0.0781,-0.077,-0.0741,-0.0726,-0.0713,-0.0754,-0.0754,-0.0754,0,-0.0398,-0.0425,-0.0445,-0.0488,-0.0498,-0.0509,-0.054,-0.0558,-0.0591,-0.0608,-0.0629,-0.0656,-0.0674,-0.069,-0.0715,-0.0717,-0.073,-0.0745,-0.0746,-0.0748,-0.0766,-0.0742,-0.0709,-0.0707,-0.0752,-0.0752,-0.0753,0,-0.0358,-0.0399,-0.0417,-0.0432,-0.0483,-0.049,-0.0511,-0.0545,-0.0561,-0.0588,-0.0599,-0.0627,-0.0642,-0.0663,-0.0696,-0.0705,-0.0717,-0.0736,-0.0732,-0.0731,-0.0732,-0.0731,-0.0699,-0.0741,-0.0741,-0.0741,-0.0741,0,-0.0335,-0.0345,-0.0399,-0.041,-0.0423,-0.0462,-0.0474,-0.0499,-0.0529,-0.0545,-0.0578,-0.0592,-0.0636,-0.0655,-0.0681,-0.0698,-0.0704,-0.0718,-0.0725,-0.0715,-0.0713,-0.0723,-0.0725,-0.074,-0.074,-0.0741,-0.0741,0,-0.0291,-0.0328,-0.0349,-0.0396,-0.0408,-0.0416,-0.0456,-0.0467,-0.0494,-0.0514,-0.0521,-0.0563,-0.0588,-0.0623,-0.0658,-0.0676,-0.0688,-0.0699,-0.0677,-0.0681,-0.0674,-0.0674,-0.0648,-0.0646,-0.0688,-0.0688,-0.0688,0,-0.0273,-0.0283,-0.0331,-0.0345,-0.0365,-0.0386,-0.0404,-0.0443,-0.0459,-0.0498,-0.0505,-0.0532,-0.0556,-0.0593,-0.0627,-0.0654,-0.0665,-0.0654,-0.0669,-0.0659,-0.0665,-0.0663,-0.0664,-0.065,-0.0649,-0.0649,-0.0649,0,-0.0238,-0.0257,-0.028,-0.0311,-0.033,-0.0356,-0.0383,-0.0392,-0.0437,-0.0454,-0.048,-0.0498,-0.0535,-0.0561,-0.0593,-0.0615,-0.0639,-0.0644,-0.0644,-0.0633,-0.062,-0.0627,-0.0666,-0.0644,-0.0644,-0.0645,-0.0645,-0.0645,-0.0207,-0.0217,-0.0253,-0.0279,-0.0304,-0.0329,-0.0342,-0.0372,-0.0394,-0.0428,-0.0449,-0.0474,-0.0508,-0.0553,-0.0573,-0.0593,-0.0603,-0.0604,-0.0604,-0.0603,-0.0599,-0.0618,-0.0599,-0.0599,-0.0599,-0.06,-0.06,0,-0.0174,-0.0199,-0.0222,-0.026,-0.028,-0.0303,-0.0334,-0.0349,-0.0371,-0.04,-0.0424,-0.0454,-0.048,-0.0516,-0.0545,-0.0553,-0.0565,-0.056,-0.0559,-0.0563,-0.0589,-0.0585,-0.055,-0.055,-0.055,-0.055,-0.055,-0.055,-0.0159,-0.0177,-0.02,-0.0231,-0.0256,-0.0282,-0.0298,-0.0321,-0.0345,-0.0377,-0.0399,-0.0423,-0.0455,-0.0487,-0.0512,-0.0522,-0.0531,-0.0521,-0.0535,-0.0557,-0.0562,-0.0566,-0.0563,-0.0523,-0.0523,-0.0508,-0.0508,-0.0508]}]]